DW1065 Weather Reports


Display with metric or nautical units.
time (UTC)temp
F
wind
direction
speed
MPH
gust
MPH
rain 1hr
in
rain 24hr
in
rain mn
in
humidity
%
barometer
mb
20260506185004 50 254 0.0 2.0 0.12 1.37 9.28 44 1007.5
20260506184505 15 347 0.0 0.0 0.06 1.37 9.22 43 1007.5
20260506184005 -7 0 0.0 0.0 0.06 1.38 9.22 85 1007.4
20260506183504 -6 0 0.0 0.0 0.06 1.40 9.22 85 1007.3
20260506183005 29 0 0.0 0.0 0.00 1.40 9.16 85 1007.3
20260506182005 29 0 0.0 0.0 0.00 1.43 9.16 85 1007.2
20260506181005 29 0 0.0 0.0 0.00 1.45 9.16 85 1007.1
20260506180006 29 0 0.0 0.0 0.00 1.47 9.16 85 1007.1
20260506175505 29 0 0.0 0.0 0.00 1.48 9.16 85 1007.1
20260506175005 29 0 0.0 0.0 0.00 1.50 9.16 85 1007.0
20260506174506 29 0 0.0 0.0 0.00 1.51 9.16 85 1007.0
20260506174004 29 0 0.0 0.0 0.00 1.52 9.16 85 1007.0
20260506173504 29 0 0.0 0.0 0.00 1.53 9.16 85 1006.9
20260506173005 29 0 0.0 0.0 0.00 1.54 9.16 85 1007.0
20260506172504 29 0 0.0 0.0 0.00 1.55 9.16 85 1007.0
20260506172004 29 0 0.0 0.0 0.00 1.57 9.16 85 1007.0
20260506171505 29 0 0.0 0.0 0.00 1.58 9.16 85 1007.0
20260506171005 29 0 0.0 0.0 0.00 1.59 9.16 85 1007.0
20260506165505 29 0 0.0 0.0 0.00 1.62 9.16 85 1007.1
20260506164505 29 0 0.0 0.0 0.00 1.65 9.16 85 1007.1
20260506164004 29 0 0.0 0.0 0.00 1.66 9.16 85 1007.1
20260506163504 29 0 0.0 0.0 0.00 1.67 9.16 85 1007.1
20260506163006 29 0 0.0 0.0 0.00 1.68 9.16 85 1007.1
20260506162505 29 0 0.0 0.0 0.00 1.69 9.16 85 1007.0
20260506161505 29 0 0.0 0.0 0.00 1.72 9.16 85 1006.9
20260506161004 29 0 0.0 0.0 0.00 1.73 9.16 85 1007.0
20260506160006 29 0 0.0 0.0 0.00 1.75 9.16 85 1007.0
20260506155504 29 0 0.0 0.0 0.00 1.76 9.16 85 1007.0
20260506155005 29 0 0.0 0.0 0.00 1.78 9.16 85 1007.0
20260506154505 29 0 0.0 0.0 0.00 1.79 9.16 85 1007.1
20260506154005 29 0 0.0 0.0 0.00 1.80 9.16 85 1007.1
20260506153504 29 0 0.0 0.0 0.00 1.81 9.16 85 1007.2
20260506153006 29 0 0.0 0.0 0.00 1.82 9.16 85 1007.2
20260506152504 29 0 0.0 0.0 0.00 1.84 9.16 85 1007.1
20260506152004 29 0 0.0 0.0 0.00 1.85 9.16 85 1007.1
20260506151506 29 0 0.0 0.0 0.00 1.86 9.16 85 1007.1
20260506151004 29 0 0.0 0.0 0.00 1.87 9.16 85 1007.1
20260506150505 29 0 0.0 0.0 0.00 1.88 9.16 85 1007.1
20260506150006 29 0 0.0 0.0 0.00 1.89 9.16 85 1007.1
20260506145504 29 0 0.0 0.0 0.00 1.91 9.16 85 1007.2
20260506145005 29 0 0.0 0.0 0.00 1.92 9.16 85 1007.4
20260506144505 29 0 0.0 0.0 0.00 1.93 9.16 85 1007.4
20260506144005 29 0 0.0 0.0 0.00 1.94 9.16 85 1007.4
20260506143505 29 0 0.0 0.0 0.00 1.95 9.16 85 1007.3
20260506143006 29 0 0.0 0.0 0.00 1.96 9.16 85 1007.3
20260506142504 29 0 0.0 0.0 0.00 1.98 9.16 85 1007.4
20260506142004 29 0 0.0 0.0 0.00 1.99 9.16 85 1007.2
20260506141505 29 0 0.0 0.0 0.00 2.00 9.16 85 1007.3
20260506141005 29 0 0.0 0.0 0.00 2.01 9.16 85 1007.3
20260506140504 29 0 0.0 0.0 0.00 2.02 9.16 85 1007.3
20260506140005 29 0 0.0 0.0 0.00 2.03 9.16 85 1007.4
20260506135505 29 0 0.0 0.0 0.00 2.05 9.16 85 1007.3
20260506135005 29 0 0.0 0.0 0.00 2.06 9.16 85 1007.3
20260506134504 29 0 0.0 0.0 0.00 2.07 9.16 85 1007.3
20260506134006 29 0 0.0 0.0 0.00 2.08 9.16 85 1007.3
20260506133504 29 0 0.0 0.0 0.00 2.09 9.16 85 1007.3
20260506133005 29 0 0.0 0.0 0.00 2.10 9.16 85 1007.4
20260506132504 29 0 0.0 0.0 0.00 2.12 9.16 85 1007.4
20260506132005 29 0 0.0 0.0 0.00 2.13 9.16 85 1007.4
20260506131505 29 0 0.0 0.0 0.00 2.14 9.16 85 1007.4
20260506131005 29 0 0.0 0.0 0.00 2.15 9.16 85 1007.4
20260506130505 29 0 0.0 0.0 0.00 2.16 9.16 85 1007.5
20260506130005 29 0 0.0 0.0 0.00 2.17 9.16 85 1007.5
20260506125505 29 0 0.0 0.0 0.00 2.19 9.16 85 1007.5
20260506125005 29 0 0.0 0.0 0.00 2.20 9.16 85 1007.6
20260506124504 29 0 0.0 0.0 0.00 2.21 9.16 85 1007.5
20260506124004 29 0 0.0 0.0 0.00 2.22 9.16 85 1007.5
20260506123505 29 0 0.0 0.0 0.00 2.23 9.16 85 1007.5
20260506123005 29 0 0.0 0.0 0.00 2.24 9.16 85 1007.5
20260506122505 29 0 0.0 0.0 0.00 2.26 9.16 85 1007.6
20260506122005 29 0 0.0 0.0 0.00 2.27 9.16 85 1007.7
20260506121504 29 0 0.0 0.0 0.00 2.28 9.16 85 1007.6
20260506120504 29 0 0.0 0.0 0.00 2.30 9.16 85 1007.5
20260506120005 29 0 0.0 0.0 0.00 2.31 9.16 85 1007.6
20260506115505 29 0 0.0 0.0 0.00 2.33 9.16 85 1007.6
20260506115005 29 0 0.0 0.0 0.00 2.34 9.16 85 1007.7
20260506114504 29 0 0.0 0.0 0.00 2.35 9.16 85 1007.7
20260506114006 29 0 0.0 0.0 0.00 2.36 9.16 85 1007.7
20260506113505 29 0 0.0 0.0 0.00 2.37 9.16 85 1007.9
20260506113005 29 0 0.0 0.0 0.00 2.39 9.16 85 1007.9
20260506112505 29 0 0.0 0.0 0.00 2.40 9.16 85 1007.8
20260506112005 29 0 0.0 0.0 0.00 2.41 9.16 85 1007.8
20260506111006 29 0 0.0 0.0 0.00 2.43 9.16 85 1007.9
20260506110504 29 0 0.0 0.0 0.00 2.44 9.16 85 1008.0
20260506110005 29 0 0.0 0.0 0.00 2.46 9.16 85 1007.9
20260506105504 29 0 0.0 0.0 0.00 2.47 9.16 85 1007.9
20260506105004 29 0 0.0 0.0 0.00 2.48 9.16 85 1007.9
20260506104006 29 0 0.0 0.0 0.00 2.50 9.16 85 1008.0
20260506103505 29 0 0.0 0.0 0.00 2.51 9.16 85 1008.0
20260506103005 29 0 0.0 0.0 0.00 2.53 9.16 85 1008.0
20260506102505 29 0 0.0 0.0 0.00 2.54 9.16 85 1008.0
20260506102004 29 0 0.0 0.0 0.00 2.55 9.16 85 1008.0
20260506101504 29 0 0.0 0.0 0.00 2.56 9.16 85 1008.0
20260506101004 29 0 0.0 0.0 0.00 2.57 9.16 85 1008.1
20260506100504 29 0 0.0 0.0 0.00 2.58 9.16 85 1008.2
20260506100005 29 0 0.0 0.0 0.00 2.60 9.16 85 1008.2
20260506095505 29 0 0.0 0.0 0.00 2.61 9.16 85 1008.2
20260506094506 29 0 0.0 0.0 0.00 2.63 9.16 85 1008.2
20260506094005 29 0 0.0 0.0 0.00 2.64 9.16 85 1008.2
20260506093504 29 0 0.0 0.0 0.00 2.65 9.16 85 1008.2
20260506093005 29 0 0.0 0.0 0.00 2.67 9.16 85 1008.2
20260506092505 29 0 0.0 0.0 0.00 2.68 9.16 85 1008.2
20260506092004 29 0 0.0 0.0 0.00 2.69 9.16 85 1008.3
20260506091504 29 0 0.0 0.0 0.00 2.70 9.16 85 1008.4
20260506091006 29 0 0.0 0.0 0.00 2.71 9.16 85 1008.3
20260506090504 29 0 0.0 0.0 0.00 2.72 9.16 85 1008.4
20260506090004 29 0 0.0 0.0 0.00 2.74 9.16 85 1008.4
20260506085504 29 0 0.0 0.0 0.00 2.75 9.16 85 1008.4
20260506085004 29 0 0.0 0.0 0.00 2.76 9.16 85 1008.5
20260506084504 29 0 0.0 0.0 0.00 2.77 9.16 85 1008.5
20260506084006 29 0 0.0 0.0 0.00 2.78 9.16 85 1008.5
20260506083504 29 0 0.0 0.0 0.00 2.79 9.16 85 1008.5
20260506083004 29 0 0.0 0.0 0.00 2.81 9.16 85 1008.5
20260506082505 29 0 0.0 0.0 0.00 2.82 9.16 85 1008.6
20260506082005 29 0 0.0 0.0 0.00 2.83 9.16 85 1008.6
20260506081505 29 0 0.0 0.0 0.00 2.84 9.16 85 1008.6
20260506081005 29 0 0.0 0.0 0.00 2.85 9.16 85 1008.7
20260506073504 29 0 0.0 0.0 0.00 2.94 9.16 85 1008.7
20260506073005 29 0 0.0 0.0 0.00 2.95 9.16 85 1008.7
20260506072505 29 0 0.0 0.0 0.00 2.96 9.16 85 1008.7
20260506072004 29 0 0.0 0.0 0.00 2.97 9.16 85 1008.7
20260506071504 29 0 0.0 0.0 0.00 2.98 9.16 85 1008.6
20260506071005 29 0 0.0 0.0 0.00 2.99 9.16 85 1008.7
20260506070504 29 0 0.0 0.0 0.00 3.01 9.16 85 1008.6
20260506062505 29 0 0.0 0.0 0.00 3.10 9.16 85 1008.5
20260506062004 29 0 0.0 0.0 0.00 3.11 9.16 85 1008.5
20260506061504 29 0 0.0 0.0 0.00 3.12 9.16 85 1008.5
20260506061006 29 0 0.0 0.0 0.00 3.13 9.16 85 1008.4
20260506060504 29 0 0.0 0.0 0.00 3.15 9.16 85 1008.5
20260506051004 29 0 0.0 0.0 0.50 3.27 9.16 85 1008.3
20260506050504 29 0 0.0 0.0 0.62 3.29 9.16 85 1008.4
20260506045004 29 0 0.0 0.0 0.96 3.32 9.16 85 1008.4
20260506044505 29 0 0.0 0.0 1.08 3.33 9.16 85 1008.4
20260506044005 29 171 0.0 1.0 1.20 3.35 9.16 85 1008.4
20260506043504 29 171 0.0 1.0 1.32 3.36 9.16 85 1008.3
20260506043005 29 159 0.0 1.0 1.40 3.36 9.12 85 1008.2
20260506042504 28 159 0.0 1.0 1.42 3.37 9.02 85 1008.2
20260506042004 28 162 0.0 1.0 1.40 3.37 8.90 85 1008.2
20260506041004 28 162 0.0 1.0 1.40 3.37 8.66 84 1008.2
20260506040504 28 163 0.0 1.0 1.40 3.37 8.54 84 1008.2
20260506040005 28 160 0.0 1.0 1.40 3.36 8.42 84 1008.2
20260506035505 28 163 0.0 1.0 1.42 3.37 8.32 83 1008.1
20260506035004 28 164 0.0 1.0 1.42 3.37 8.20 83 1008.1
20260506034504 28 155 0.0 1.0 1.40 3.37 8.08 83 1008.2
20260506034006 28 165 0.0 1.0 1.40 3.37 7.96 83 1008.2
20260506033505 29 162 0.0 1.0 1.40 3.37 7.84 83 1008.1
20260506033005 29 163 0.0 1.0 1.40 3.37 7.72 83 1008.1
20260506032504 29 159 0.0 1.0 1.40 3.36 7.60 82 1008.1
20260506032004 29 58 0.0 1.0 1.42 3.37 7.50 82 1008.1
20260506031005 29 157 0.0 1.0 1.40 3.37 7.26 83 1008.1
20260506030504 29 161 0.0 1.0 1.40 3.37 7.14 82 1008.0
20260506030004 29 163 0.0 1.0 1.40 3.37 7.02 82 1008.1
20260506025504 29 162 0.0 1.0 1.40 3.37 6.90 81 1008.1
20260506025005 29 155 0.0 1.0 1.40 3.36 6.78 81 1008.0
20260506024505 29 67 0.0 1.0 1.42 3.37 6.68 81 1008.1
20260506024006 29 160 0.0 1.0 1.42 3.37 6.56 81 1008.1
20260506023504 29 161 0.0 1.0 1.40 3.37 6.44 81 1008.1
20260506023005 29 162 0.0 1.0 1.40 3.37 6.32 81 1008.1
20260506022505 29 161 0.0 1.0 1.40 3.37 6.20 81 1008.1
20260506021504 29 166 0.0 1.0 1.40 3.36 5.96 81 1008.0
20260506020504 30 153 0.0 1.0 1.42 3.37 5.74 81 1008.0
20260506020005 30 164 0.0 1.0 1.40 3.37 5.62 81 1007.9
20260506015506 30 163 0.0 1.0 1.40 3.37 5.50 81 1007.8
20260506015004 30 164 0.0 1.0 1.40 3.37 5.38 79 1007.8
20260506014504 30 161 0.0 1.0 1.40 3.37 5.26 79 1007.8
20260506014004 30 159 0.0 1.0 1.40 3.36 5.14 79 1007.8
20260506013505 30 159 0.0 1.0 1.42 3.37 5.04 79 1007.8
20260506013005 30 165 0.0 1.0 1.40 3.37 4.92 79 1007.8
20260506012004 31 165 0.0 1.0 1.40 3.37 4.68 79 1007.7
20260506011505 31 165 0.0 1.0 1.40 3.37 4.56 78 1007.7
20260506011004 31 165 0.0 1.0 1.40 3.37 4.44 78 1007.7
20260506010504 31 164 0.0 1.0 1.40 3.36 4.32 78 1007.6
20260506010004 31 165 0.0 1.0 1.42 3.37 4.22 77 1007.7
20260506005504 31 165 0.0 1.0 1.40 3.37 4.10 77 1007.6
20260506005005 32 162 0.0 1.0 1.40 3.37 3.98 77 1007.6
20260506004505 32 166 0.0 1.0 1.40 3.37 3.86 77 1007.5
20260506004004 32 166 0.0 1.0 1.40 3.37 3.74 76 1007.5
20260506003504 32 163 0.0 1.0 1.40 3.36 3.62 77 1007.5
20260506003005 32 60 0.0 1.0 1.42 3.37 3.52 77 1007.5
20260506002505 32 163 0.0 1.0 1.40 3.36 3.38 77 1007.5
20260506002004 33 163 0.0 1.0 1.40 3.37 3.28 77 1007.5
20260506001504 33 159 0.0 1.0 1.40 3.37 3.16 77 1007.5
20260506001004 33 164 0.0 1.0 1.40 3.37 3.04 76 1007.5
20260506000504 33 166 0.0 3.0 1.40 3.36 2.92 76 1007.6
20260506000005 33 82 1.0 3.0 1.40 3.36 2.80 76 1007.5
20260505234504 33 166 0.0 1.0 1.40 3.37 2.46 75 1007.4
20260505234006 34 164 0.0 1.0 1.40 3.37 2.34 75 1007.4
20260505233504 34 163 0.0 1.0 1.40 3.37 2.22 74 1007.4
20260505233004 34 164 0.0 1.0 1.40 3.37 2.10 75 1007.4
20260505232506 34 165 0.0 1.0 1.40 3.36 1.98 75 1007.5
20260505231504 34 161 0.0 1.0 1.42 3.37 1.76 75 1007.5
20260505231006 34 160 0.0 1.0 1.40 3.37 1.64 75 1007.4
20260505230504 35 167 0.0 1.0 1.40 3.37 1.52 76 1007.4
20260505230005 35 162 0.0 1.0 1.40 3.37 1.40 76 1007.5
20260505225504 35 165 0.0 1.0 1.40 3.37 1.28 76 1007.5
20260505224004 36 165 0.0 2.0 1.42 3.37 0.94 78 1007.6
20260505223005 36 165 1.0 3.0 1.40 3.37 0.70 78 1007.5
20260505222006 36 174 0.0 2.0 1.40 3.36 0.46 78 1007.5
20260505221504 37 174 0.0 1.0 1.40 3.36 0.34 77 1007.4
20260505221004 37 173 0.0 1.0 1.42 3.37 0.24 77 1007.4
20260505220505 37 170 0.0 1.0 1.42 3.37 0.12 77 1007.4
20260505220004 37 175 0.0 1.0 1.40 3.37 0.00 77 1007.4
20260505215504 38 172 0.0 1.0 1.40 3.37 3.36 76 1007.3
20260505215005 38 163 0.0 1.0 1.40 3.37 3.34 76 1007.2
20260505214505 38 175 0.0 1.0 1.40 3.36 3.33 76 1007.2
20260505214004 38 174 0.0 1.0 1.42 3.37 3.32 75 1007.2
20260505212504 40 168 0.0 1.0 1.40 3.37 3.29 73 1007.1
20260505212005 40 164 0.0 1.0 1.40 3.37 3.27 72 1007.2
20260505211504 40 166 0.0 1.0 1.40 3.37 3.26 71 1007.2
20260505211004 41 175 0.0 1.0 1.40 3.36 3.25 71 1007.3
20260505210004 41 174 0.0 1.0 1.42 3.37 3.23 71 1007.2
20260505205504 41 172 0.0 1.0 1.40 3.37 3.22 70 1007.0
20260505205004 41 172 0.0 1.0 1.40 3.37 3.20 70 1007.0
20260505204504 42 176 0.0 1.0 1.40 3.37 3.19 70 1007.0
20260505204005 42 172 0.0 1.0 1.40 3.37 3.18 69 1007.0
20260505203504 42 175 0.0 1.0 1.40 3.36 3.17 69 1007.0
20260505203004 42 169 0.0 1.0 1.42 3.37 3.16 68 1007.0
20260505202504 43 173 0.0 1.0 1.42 3.37 3.15 68 1006.8
20260505202005 43 175 0.0 1.0 1.40 3.37 3.13 68 1006.9
20260505201504 43 173 0.0 1.0 1.40 3.37 3.12 67 1006.9
20260505201004 43 171 0.0 2.0 1.40 3.37 3.11 67 1006.8
20260505200505 44 170 0.0 2.0 1.40 3.37 3.10 66 1006.7
20260505200004 44 173 1.0 2.0 1.40 3.36 3.09 66 1006.7
20260505195504 44 174 0.0 1.0 1.42 3.37 3.08 66 1006.7
20260505195005 44 168 0.0 2.0 1.42 3.37 3.06 65 1006.6
20260505194504 44 168 1.0 2.0 1.40 3.37 3.05 65 1006.7
20260505194004 44 171 0.0 2.0 1.40 3.37 3.04 65 1006.7
20260505193504 44 172 1.0 3.0 1.40 3.37 3.03 64 1006.6
20260505192006 45 222 1.0 6.0 1.42 3.37 2.99 64 1006.3
20260505191503 45 213 2.0 6.0 1.40 3.37 2.98 64 1006.2
20260505191004 45 197 2.0 5.0 1.40 3.37 2.97 64 1006.3
20260505190504 45 180 2.0 6.0 1.40 3.37 2.96 63 1006.1
20260505190005 45 179 2.0 6.0 1.40 3.37 2.95 63 1006.1
20260505185504 45 218 2.0 5.0 1.40 3.36 2.93 62 1006.2